Wind_Speed
47 52 47 47 46 41 44 43 47 48 41 40 43 42 41 40 41 41 39 40 40 39 36 33 34 33 26 23 22 22 19 16 16 15 16 15 15 15 14 13 12 10 10
43 45 42 42 41 41 42 46 48 42 38 41 40 39 38 39 39 37 37 37 38 37 35 33 34 33 26 22 21 21 21 19 17 17 16 16 16 17 19 19 19 19 18
43 37 36 36 40 41 48 48 40 38 38 38 37 37 38 38 37 35 36 37 35 37 38 34 34 32 27 21 20 20 21 19 17 16 16 18 18 18 18 20 21 23 25
46 38 35 42 43 40 46 44 39 38 40 38 38 37 36 36 35 34 35 36 36 39 40 36 34 32 28 22 19 20 19 19 19 18 19 20 21 22 24 25 26 26 27
48 47 44 45 42 42 46 49 44 46 42 36 39 38 33 34 34 34 34 35 38 39 39 35 32 32 28 24 21 20 19 21 22 22 22 23 25 26 27 29 31 32 33
49 47 44 46 43 42 46 50 49 46 37 38 37 35 33 33 33 33 36 37 37 38 37 32 31 32 29 24 23 20 21 22 24 25 26 27 28 29 31 32 33 35 36
54 49 49 42 38 40 51 53 53 37 37 39 35 32 33 34 33 34 35 37 36 35 32 29 30 32 29 25 23 21 21 23 25 27 28 29 30 32 34 36 37 38 38
41 44 42 39 40 40 46 48 43 38 34 33 33 32 33 32 32 34 36 35 33 32 31 32 33 30 28 26 23 21 22 25 27 29 31 32 34 36 39 40 42 43 44
47 38 43 42 38 41 44 49 40 27 24 29 31 32 31 31 32 34 35 34 32 31 31 32 30 28 26 26 24 23 24 28 28 30 32 35 38 40 42 45 47 48 51
45 41 45 47 44 52 51 32 23 20 25 30 29 29 30 31 32 33 34 33 33 31 30 30 29 29 26 26 26 26 26 29 31 33 36 39 42 45 47 49 50 52 55
43 41 43 47 50 55 38 22 21 22 26 25 27 29 29 30 31 33 34 33 31 29 30 31 29 28 27 27 28 28 28 31 34 36 39 42 45 48 51 52 54 56 58
41 46 45 41 37 23 16 19 21 23 25 25 27 28 29 29 31 33 32 31 28 28 30 30 30 28 27 28 28 29 30 32 35 38 41 44 47 50 53 54 56 56 57
32 35 27 22 17 15 16 17 19 22 23 25 27 29 29 29 31 31 29 27 27 29 29 29 29 28 27 28 28 29 31 34 38 41 43 46 48 51 53 54 54 55 52
24 20 20 18 16 15 14 17 20 23 24 26 28 29 29 29 29 27 27 26 26 28 29 28 27 26 27 27 28 30 32 35 39 43 45 47 50 51 53 53 52 52 49
20 21 18 15 16 14 15 15 18 21 24 26 27 27 28 28 27 27 26 26 27 28 28 27 26 26 27 27 28 31 34 37 41 44 46 49 50 52 52 52 50 48 45
18 16 13 12 11 12 14 14 19 23 23 22 24 26 27 28 26 25 25 26 27 28 27 26 27 27 27 28 29 33 36 39 42 44 47 49 50 50 50 49 48 45 42
16 14 15 16 15 14 15 18 21 22 21 23 24 25 27 27 27 26 25 26 27 28 27 27 28 27 28 30 33 35 38 40 43 45 48 47 48 48 47 47 46 43 40
17 16 18 19 21 19 20 21 22 22 22 24 25 25 26 26 26 26 27 28 29 28 27 27 28 29 30 32 34 37 39 41 44 46 46 45 45 46 47 45 44 42 39
25 24 23 24 24 24 24 24 26 24 23 24 25 26 26 25 25 26 27 29 29 28 28 28 29 29 31 33 35 38 40 42 45 45 44 44 45 46 46 44 43 41 40
31 31 29 26 27 27 27 27 24 23 24 25 25 26 23 20 25 28 29 29 27 27 27 28 29 31 33 35 37 39 41 44 44 43 43 44 45 46 44 43 41 40 40
32 33 32 29 29 31 30 27 25 24 24 25 25 24 21 24 26 26 26 25 26 27 28 30 31 33 34 36 39 41 44 45 43 43 43 45 46 45 43 42 42 42 42
35 35 33 34 34 30 28 28 24 24 25 25 22 20 22 24 26 26 26 27 27 28 29 31 33 34 36 38 41 44 46 44 43 43 44 45 45 44 45 46 46 46 46
35 32 31 33 31 29 28 26 24 24 24 22 19 21 23 25 28 28 29 30 30 30 31 32 34 36 39 41 43 47 46 44 44 45 46 46 46 48 49 49 49 49 47
37 34 33 33 31 29 26 25 22 23 25 25 24 24 26 27 30 32 32 31 32 32 33 35 37 39 41 43 46 48 46 45 46 47 48 49 50 51 51 51 51 50 48
36 33 31 31 30 28 27 24 21 29 30 30 31 33 33 33 34 34 33 33 34 34 36 37 38 41 43 46 49 48 46 46 48 49 50 51 52 52 51 52 51 48 48
29 28 29 29 27 25 24 22 26 28 26 28 32 34 35 38 37 34 34 35 35 35 37 38 40 43 45 49 49 47 47 48 50 51 52 52 52 52 52 50 49 49 49
Wind_Direction
279 283 287 292 292 285 281 280 285 279 277 276 283 289 296 301 300 296 295 297 300 302 304 304 307 307 301 302 303 302 302 301 303 305 310 313 313 313 310 309 305 293 279
282 289 292 287 286 281 281 282 275 269 270 276 285 291 298 299 296 294 294 298 300 301 305 301 305 307 298 296 297 296 295 296 298 301 303 306 308 310 309 306 301 294 287
288 289 286 284 282 280 283 267 263 267 273 280 289 294 297 296 293 290 291 296 299 303 305 303 301 306 296 291 291 291 289 292 295 297 303 306 306 300 296 295 291 287 283
281 287 279 288 288 282 272 263 264 271 275 283 291 292 293 292 289 288 293 297 299 300 302 302 298 301 292 285 283 284 284 290 293 298 301 304 306 306 307 302 294 287 281
278 285 283 277 273 272 271 252 261 265 270 284 291 290 290 290 287 290 293 295 298 301 302 297 293 295 288 280 277 278 284 292 295 298 303 305 305 305 305 304 301 296 291
277 279 275 275 274 276 261 247 253 263 272 279 286 286 289 287 288 292 296 297 299 302 301 294 293 293 283 274 273 278 284 291 296 298 298 301 303 303 302 299 297 295 295
269 272 267 267 268 268 266 246 249 262 271 279 283 285 288 285 288 293 295 296 299 300 298 293 296 294 281 271 269 274 285 293 294 296 297 299 301 302 302 304 302 298 293
261 261 267 262 263 258 234 241 252 260 268 278 281 285 285 286 291 293 293 295 298 296 294 297 296 287 279 268 269 277 285 289 291 292 295 299 302 304 304 303 301 297 293
249 259 266 267 264 231 240 246 257 262 277 276 281 283 283 287 291 290 292 297 298 293 295 299 294 285 276 266 267 275 281 284 288 292 295 299 302 304 305 306 304 303 302
245 256 252 247 241 230 240 248 264 274 272 274 280 282 285 289 288 288 293 296 295 293 295 296 291 287 277 269 270 274 281 287 290 295 300 304 306 308 309 308 306 307 306
248 244 246 223 228 230 248 254 262 268 272 278 282 282 286 288 289 291 296 296 293 292 293 292 289 286 277 271 271 277 283 288 293 299 305 308 310 310 311 311 312 313 312
230 241 227 219 223 232 254 260 265 271 275 278 280 287 292 292 290 293 295 294 292 292 290 290 289 285 280 276 275 278 285 292 298 303 307 309 312 313 314 315 315 315 314
207 208 214 221 225 235 244 254 264 269 276 284 290 292 291 289 291 296 296 293 290 289 287 287 286 283 280 278 278 282 290 297 301 305 309 311 312 314 315 315 314 313 312
220 215 219 219 221 230 243 261 272 278 282 291 291 290 289 289 294 298 295 294 292 288 286 286 284 282 282 282 283 288 295 301 305 308 310 312 313 314 315 315 312 311 309
219 223 216 215 228 243 256 269 281 287 286 285 285 287 288 290 295 298 297 294 291 288 285 283 283 283 282 281 287 295 301 304 307 308 310 312 314 315 314 313 311 308 305
210 210 223 235 242 244 260 280 290 293 286 289 287 287 289 291 295 297 296 294 290 286 283 281 283 285 285 287 294 299 302 305 307 308 311 313 314 314 315 313 311 308 304
210 225 241 238 239 263 276 285 290 298 293 291 287 290 290 292 294 296 295 294 290 285 281 284 289 289 289 292 298 302 304 306 308 311 313 314 314 315 315 314 313 309 304
232 247 250 246 247 268 287 297 307 300 292 290 290 289 290 293 295 295 293 292 290 285 284 288 289 289 291 296 300 302 305 307 310 312 313 314 316 316 316 314 313 311 307
257 254 259 256 258 273 290 295 302 293 289 288 288 289 294 297 296 295 293 290 286 282 284 287 289 293 296 299 302 305 306 309 312 312 313 316 317 317 316 315 313 309 306
256 250 252 259 261 274 286 290 290 287 285 284 284 292 295 299 299 295 292 288 282 283 287 290 294 296 299 302 304 306 308 312 311 311 313 315 317 316 316 315 314 312 308
249 248 251 259 261 271 281 282 284 280 280 280 286 291 288 303 306 301 293 287 285 288 292 295 297 299 302 304 306 308 311 311 309 310 312 315 315 315 314 314 314 313 311
251 251 253 256 263 270 273 276 273 274 276 279 285 285 292 303 311 306 295 290 290 293 294 296 298 301 304 307 308 309 310 308 307 310 312 313 313 313 313 313 313 312 309
242 250 258 262 262 263 265 265 268 267 269 273 283 291 294 309 311 301 295 291 293 294 296 297 299 302 307 308 308 310 309 306 306 308 309 310 310 311 312 311 311 310 308
242 250 254 257 258 259 260 262 266 270 273 271 279 291 298 305 307 298 292 291 293 295 297 299 301 304 307 306 308 309 306 305 305 306 308 308 309 310 310 310 310 309 307
236 240 245 248 251 251 254 255 253 261 272 270 276 285 291 300 299 293 289 291 294 296 299 300 301 305 304 306 309 307 305 304 304 305 307 308 309 309 309 309 309 307 306
235 239 242 243 244 250 246 242 250 259 274 281 281 283 291 295 291 286 288 290 293 295 297 297 300 303 305 308 308 305 304 304 305 307 308 308 309 309 309 308 308 307 305
Height
5622 5624 5625 5623 5622 5621 5620 5620 5619 5615 5613 5612 5610 5608 5605 5601 5597 5593 5589 5587 5582 5578 5573 5568 5563 5558 5554 5551 5549 5546 5543 5540 5538 5536 5533 5531 5529 5527 5526 5525 5525 5525 5527
5610 5613 5612 5612 5611 5610 5609 5608 5607 5603 5603 5602 5601 5598 5594 5591 5588 5584 5581 5578 5574 5571 5567 5562 5556 5552 5548 5546 5544 5542 5539 5537 5535 5532 5530 5528 5527 5525 5522 5522 5521 5521 5521
5600 5601 5600 5601 5600 5599 5598 5596 5595 5593 5593 5593 5590 5588 5585 5581 5578 5575 5572 5569 5565 5563 5559 5555 5549 5545 5543 5541 5539 5537 5535 5533 5531 5529 5527 5525 5523 5521 5520 5518 5516 5516 5516
5590 5592 5591 5591 5591 5590 5587 5583 5584 5583 5583 5583 5580 5578 5575 5571 5570 5567 5564 5561 5557 5554 5551 5547 5542 5538 5536 5535 5533 5532 5530 5528 5526 5525 5522 5520 5518 5516 5513 5510 5509 5509 5508
5579 5581 5582 5581 5580 5580 5576 5572 5573 5573 5572 5572 5571 5569 5565 5563 5561 5558 5555 5551 5548 5545 5541 5537 5534 5531 5529 5528 5526 5525 5524 5523 5521 5518 5516 5514 5512 5510 5508 5505 5503 5501 5499
5566 5567 5568 5569 5569 5569 5564 5562 5564 5564 5562 5562 5561 5559 5556 5554 5553 5550 5547 5543 5539 5535 5532 5529 5526 5523 5521 5520 5518 5517 5517 5515 5514 5512 5510 5508 5506 5504 5502 5500 5497 5494 5491
5553 5554 5554 5556 5557 5557 5554 5550 5553 5552 5551 5553 5551 5549 5547 5546 5543 5541 5538 5534 5530 5526 5524 5521 5518 5516 5513 5511 5511 5509 5508 5508 5507 5506 5504 5502 5499 5497 5495 5491 5488 5486 5484
5538 5540 5543 5544 5545 5542 5542 5541 5542 5541 5541 5542 5542 5540 5539 5538 5535 5532 5530 5526 5521 5517 5515 5513 5510 5508 5506 5505 5504 5502 5501 5501 5500 5499 5496 5494 5491 5488 5485 5481 5478 5475 5473
5525 5528 5530 5531 5533 5533 5533 5532 5534 5532 5531 5533 5532 5532 5531 5528 5526 5523 5520 5517 5513 5509 5507 5504 5501 5499 5498 5498 5497 5495 5494 5493 5492 5490 5488 5485 5481 5478 5474 5469 5465 5460 5455
5511 5515 5518 5517 5522 5522 5522 5525 5524 5522 5524 5524 5523 5523 5522 5519 5517 5514 5511 5508 5504 5501 5499 5496 5494 5492 5490 5490 5489 5488 5486 5485 5483 5481 5477 5474 5470 5465 5461 5457 5452 5447 5441
5500 5500 5505 5504 5508 5511 5514 5514 5515 5515 5517 5516 5515 5514 5512 5510 5508 5506 5502 5498 5495 5493 5491 5488 5487 5484 5482 5482 5481 5480 5478 5476 5474 5471 5467 5462 5458 5452 5447 5442 5436 5430 5423
5486 5491 5494 5497 5499 5502 5505 5506 5507 5508 5509 5508 5508 5505 5504 5501 5499 5497 5494 5489 5487 5485 5483 5480 5478 5476 5474 5473 5473 5471 5469 5467 5464 5460 5456 5451 5446 5440 5434 5428 5421 5415 5407
5478 5483 5486 5488 5491 5494 5496 5498 5500 5502 5500 5499 5497 5496 5494 5492 5491 5488 5485 5481 5479 5477 5475 5473 5470 5468 5467 5466 5464 5462 5460 5458 5454 5450 5446 5441 5436 5429 5422 5416 5408 5402 5395
5473 5475 5479 5481 5484 5488 5490 5491 5492 5493 5491 5489 5488 5487 5486 5484 5482 5479 5475 5473 5471 5469 5467 5465 5462 5461 5459 5457 5455 5453 5451 5448 5444 5439 5435 5430 5424 5417 5410 5403 5396 5388 5382
5468 5471 5474 5476 5480 5481 5482 5483 5484 5484 5482 5481 5480 5478 5477 5475 5472 5469 5467 5465 5463 5461 5459 5457 5455 5453 5451 5449 5447 5444 5441 5438 5434 5429 5424 5418 5412 5405 5397 5390 5383 5377 5372
5462 5466 5470 5470 5471 5474 5476 5475 5475 5476 5474 5471 5470 5469 5468 5466 5464 5461 5459 5457 5455 5453 5451 5449 5447 5445 5443 5441 5439 5436 5432 5428 5423 5419 5413 5407 5400 5393 5386 5378 5372 5366 5360
5459 5462 5463 5464 5467 5468 5468 5467 5467 5465 5463 5462 5462 5460 5459 5458 5455 5453 5451 5449 5446 5445 5443 5440 5438 5437 5434 5432 5429 5426 5422 5418 5413 5408 5402 5395 5388 5381 5374 5367 5360 5354 5350
5452 5454 5456 5457 5459 5460 5460 5458 5457 5456 5456 5455 5454 5453 5451 5449 5447 5444 5442 5440 5438 5436 5434 5432 5430 5428 5426 5423 5420 5416 5412 5407 5402 5397 5391 5384 5377 5370 5363 5357 5350 5344 5339
5444 5447 5448 5449 5450 5451 5450 5449 5449 5449 5447 5447 5446 5445 5442 5440 5438 5436 5434 5432 5429 5428 5426 5425 5422 5420 5417 5414 5410 5406 5401 5396 5391 5385 5379 5373 5366 5360 5353 5347 5341 5335 5330
5435 5438 5440 5440 5440 5441 5442 5442 5440 5440 5440 5439 5438 5437 5434 5433 5430 5427 5425 5423 5421 5419 5418 5416 5414 5411 5408 5404 5400 5395 5390 5385 5380 5374 5368 5362 5356 5349 5343 5337 5331 5325 5320
5426 5428 5431 5431 5432 5432 5433 5433 5432 5432 5432 5431 5429 5428 5426 5425 5421 5418 5415 5414 5412 5411 5409 5407 5404 5401 5398 5394 5390 5384 5379 5374 5369 5364 5358 5351 5346 5340 5334 5327 5321 5315 5310
5416 5418 5421 5423 5423 5422 5422 5423 5424 5424 5423 5423 5420 5419 5418 5416 5413 5410 5407 5406 5405 5403 5401 5398 5395 5391 5388 5384 5379 5374 5369 5363 5358 5353 5347 5341 5335 5330 5323 5317 5311 5305 5298
5407 5408 5410 5413 5412 5412 5413 5414 5415 5415 5415 5414 5412 5411 5410 5408 5405 5402 5399 5397 5396 5394 5392 5389 5385 5382 5378 5373 5368 5363 5357 5351 5346 5342 5336 5330 5324 5318 5311 5305 5299 5292 5286
5395 5398 5400 5402 5403 5403 5404 5405 5405 5407 5406 5404 5403 5402 5401 5399 5397 5394 5391 5389 5387 5385 5382 5379 5375 5371 5367 5362 5357 5352 5346 5340 5335 5330 5325 5318 5312 5305 5298 5292 5286 5279 5273
5385 5387 5389 5391 5393 5394 5394 5395 5397 5398 5397 5395 5394 5393 5392 5390 5388 5384 5382 5379 5377 5374 5371 5368 5364 5361 5356 5351 5346 5340 5334 5329 5323 5318 5312 5306 5299 5292 5285 5278 5272 5266 5260
5375 5377 5380 5382 5383 5383 5385 5386 5388 5389 5387 5386 5385 5383 5382 5380 5377 5375 5372 5370 5368 5365 5361 5358 5355 5350 5344 5339 5333 5327 5321 5316 5311 5305 5298 5292 5285 5278 5271 5265 5258 5253 5246